Wind_Speed
47 45 43 42 40 39 38 38 38 38 38 37 37 37 37 37 36 36 35 34 33 32 31 30 29 29 29 29 30 31 31 31 31 30 28 27 26 25 25 25 25 25 25 25 26 28 28 29 29 29 29 29 29 29 29 28 28 28 28 29 30 29 29 29 29 29 29 28 27 26 25 25 25 25 25 24 23 21 19 18 19 20 22 23 23 22
48 47 46 44 42 40 39 38 38 38 38 38 38 38 38 37 37 36 36 35 35 35 34 33 32 30 30 29 30 30 31 31 31 30 28 27 26 25 25 24 24 24 25 25 26 27 28 28 28 28 28 28 28 28 28 28 27 27 27 27 28 28 28 28 29 29 28 27 26 25 24 23 23 24 25 25 24 22 20 19 18 19 20 21 22 22
49 48 47 46 44 42 40 39 39 39 39 39 39 39 38 38 38 37 37 36 36 36 36 35 34 33 32 31 31 31 31 31 30 30 28 27 27 26 25 25 25 25 25 26 26 27 27 27 27 27 27 27 27 27 27 26 26 26 26 26 27 28 28 29 29 29 28 27 26 25 24 22 23 24 25 26 26 24 22 20 19 19 19 20 21 21
49 49 48 47 46 44 42 40 40 40 40 40 40 40 39 39 38 38 38 37 37 36 36 36 36 35 34 33 33 32 32 31 31 30 29 29 28 28 27 26 26 26 26 26 26 27 27 26 26 26 26 26 26 26 25 25 25 25 25 26 27 28 29 29 29 29 28 27 27 25 24 23 24 25 26 27 26 25 23 21 20 19 19 20 20 21
49 48 48 47 46 45 43 42 41 41 41 41 41 41 40 40 39 39 39 38 37 37 36 36 36 36 35 35 34 34 33 32 32 31 31 31 31 30 29 28 27 26 26 26 26 26 26 26 26 25 25 25 25 25 24 24 24 24 25 26 27 28 29 29 29 29 28 28 27 26 25 25 26 27 27 27 27 25 23 22 20 19 19 20 20 20
49 48 48 47 46 45 44 43 42 42 42 42 42 42 41 41 41 40 40 39 38 37 37 36 35 35 35 35 35 34 34 33 33 33 33 33 33 32 31 29 28 27 26 26 26 26 26 26 25 25 25 25 25 24 24 24 24 25 26 27 27 28 29 29 29 28 28 28 28 27 27 27 28 28 28 28 27 26 24 23 21 20 20 20 20 21
49 49 48 47 47 46 45 44 43 43 43 43 43 43 43 42 42 41 41 40 40 39 38 37 36 36 35 35 34 34 34 34 34 34 34 34 34 33 32 30 28 27 26 26 26 26 26 26 25 25 25 25 25 24 24 24 24 25 26 27 28 28 28 28 28 28 28 28 28 28 28 29 30 29 28 27 27 26 25 24 23 22 21 21 22 22
50 50 49 48 47 47 46 45 44 43 43 43 43 44 44 44 43 43 43 42 42 41 40 40 39 38 37 36 35 35 35 36 36 36 36 35 35 34 33 31 29 28 27 27 27 26 26 26 26 26 26 26 25 25 25 25 25 26 27 28 28 28 28 27 27 27 27 27 27 28 29 29 29 28 27 26 26 27 27 26 26 25 24 23 23 23
51 51 50 50 49 48 47 46 45 44 43 44 44 44 44 45 45 44 44 44 43 43 43 42 42 41 40 40 39 38 38 38 38 38 37 37 36 35 33 32 30 28 28 28 27 27 27 27 27 26 26 26 26 26 26 26 26 27 28 29 29 28 28 27 27 26 26 26 26 26 27 26 26 25 24 25 26 27 27 27 27 26 25 24 24 24
51 51 51 51 50 49 48 47 46 45 44 44 44 45 45 45 46 45 45 45 45 45 44 44 44 44 44 43 43 42 42 41 41 40 39 38 37 36 35 33 31 30 29 28 28 28 28 28 28 27 27 27 27 27 27 27 28 28 29 29 29 28 28 27 27 26 26 25 25 24 24 23 23 22 23 24 25 26 27 26 26 25 24 24 24 24
52 52 51 51 51 50 50 49 48 47 45 45 45 45 45 46 46 46 46 46 46 45 45 45 45 45 45 45 45 45 44 44 43 42 41 40 39 38 37 35 33 32 31 30 30 29 29 29 29 28 29 28 29 29 29 29 29 29 30 30 29 29 28 28 27 27 26 26 25 24 23 22 22 22 23 25 25 26 25 24 24 23 23 24 25 25
53 53 52 52 51 51 51 50 49 48 47 46 45 45 46 46 46 46 46 47 46 46 45 45 45 45 45 45 46 46 46 45 45 44 43 42 41 40 39 38 36 34 33 32 31 31 30 30 30 30 30 30 30 30 30 30 30 30 30 30 29 29 29 28 28 27 27 26 25 24 23 23 24 25 25 26 26 26 25 23 22 23 24 25 26 24
54 54 53 53 53 52 52 51 50 49 48 47 47 46 46 45 45 45 46 46 46 46 46 45 45 45 45 45 45 45 45 46 45 45 44 44 43 42 41 40 39 37 36 34 33 33 32 31 31 31 31 31 31 31 31 31 31 31 31 30 30 29 29 29 28 28 27 27 26 25 25 25 26 27 27 27 27 26 25 23 23 24 26 27 26 24
55 55 55 54 54 54 53 52 51 50 50 49 48 47 46 45 44 44 45 45 46 46 46 46 46 46 45 45 45 45 45 45 46 45 45 45 44 43 43 42 41 40 38 37 36 34 33 33 32 32 32 32 31 31 31 31 31 31 31 31 30 30 30 29 29 29 28 27 27 26 26 27 28 28 27 27 27 26 25 24 25 26 28 27 25 23
57 56 56 56 55 55 54 54 53 52 51 50 48 47 46 45 45 44 44 45 45 46 46 46 47 46 46 46 45 45 45 45 45 45 45 45 44 44 44 43 43 42 40 39 38 36 35 34 34 33 33 33 32 32 32 32 32 32 32 31 31 30 30 30 30 30 29 28 28 27 28 28 28 28 27 27 27 27 25 25 26 27 28 26 24 22
58 58 57 57 57 56 55 55 54 53 52 51 49 48 47 46 46 45 45 45 45 45 45 46 46 47 47 47 46 45 45 45 45 45 45 45 45 44 44 44 44 43 42 41 39 38 37 36 35 35 34 34 33 33 33 33 33 33 33 32 32 31 31 31 30 30 30 29 29 28 28 29 29 28 28 28 28 27 26 26 27 27 26 24 23 21
60 59 59 59 58 57 56 55 55 54 53 52 51 49 48 47 46 46 45 45 44 45 45 46 46 47 47 47 46 46 45 45 45 46 46 46 45 45 45 45 45 44 43 42 41 39 38 37 37 36 35 35 34 34 34 34 34 34 34 33 32 32 32 31 31 31 31 30 30 29 29 30 29 29 29 29 28 28 27 27 27 27 25 24 23 22
61 61 60 60 59 58 57 56 56 55 54 53 52 51 49 48 47 46 46 45 45 45 45 46 46 47 47 46 46 46 45 45 45 46 46 46 46 46 46 46 46 45 44 43 42 41 40 39 38 37 36 36 35 35 35 35 35 35 35 34 33 33 32 32 32 31 31 31 31 30 30 31 31 30 30 29 29 28 28 28 27 27 25 24 23 23
62 62 61 61 60 59 59 58 57 56 54 53 52 51 50 49 48 47 46 46 45 45 45 45 46 46 46 46 46 45 45 45 46 46 47 47 47 47 47 47 47 46 45 44 43 42 41 40 39 38 37 37 36 36 36 36 36 36 35 35 34 33 33 32 32 32 31 31 31 31 31 31 32 31 31 30 29 29 28 28 28 27 26 25 24 24
62 62 62 61 60 60 59 59 59 57 55 54 52 52 51 50 49 48 48 47 46 46 46 46 46 46 45 45 45 45 45 45 46 47 47 48 48 48 47 47 47 46 45 44 43 42 42 41 40 39 38 38 37 37 37 36 36 36 36 35 35 34 33 33 32 32 31 31 31 31 32 32 32 32 31 30 30 29 29 28 28 28 27 26 25 25
63 63 63 62 60 59 59 59 59 58 56 54 53 52 52 52 51 49 49 47 47 46 46 46 46 45 45 44 45 45 45 46 46 47 48 48 49 48 48 48 47 47 46 45 44 43 42 42 41 40 39 38 38 37 37 37 37 36 36 36 35 34 34 33 32 32 31 31 31 31 31 32 32 31 31 31 30 29 29 29 29 29 28 27 26 25
63 63 63 62 60 59 59 59 58 57 56 54 53 53 53 53 51 50 49 48 47 47 47 46 46 45 44 44 45 46 46 46 47 47 48 48 49 48 48 47 47 47 46 45 44 43 43 42 41 40 40 39 38 38 38 37 37 37 37 36 36 35 34 33 32 32 31 31 31 31 31 31 31 31 31 31 30 30 30 30 30 30 29 27 26 25
63 63 63 62 61 60 59 58 57 57 56 56 55 55 55 53 52 51 50 48 48 48 47 47 46 46 45 46 46 46 46 46 47 47 48 48 48 48 47 47 47 47 47 46 45 44 43 43 42 41 40 39 39 39 38 38 38 37 37 37 36 35 34 33 33 32 32 31 30 30 30 29 29 30 30 30 30 30 31 31 31 30 29 27 26 25
61 62 62 62 61 60 59 57 56 56 56 56 56 56 56 55 54 52 50 49 49 48 48 47 47 47 47 47 46 46 46 46 46 47 47 48 48 48 47 47 47 47 47 46 45 44 44 43 42 41 41 40 39 39 39 38 38 38 38 37 36 36 34 34 33 32 32 31 30 30 29 29 29 29 29 30 30 31 31 31 31 30 28 27 26 25
59 59 60 60 59 58 57 55 54 54 53 53 53 54 56 56 55 53 51 50 50 49 49 48 48 48 48 47 47 47 46 46 46 46 47 47 47 47 47 47 46 46 46 46 45 44 44 43 42 42 41 40 40 40 39 39 39 38 38 38 37 36 35 34 33 33 32 31 31 30 29 29 28 29 29 29 30 30 31 30 30 28 27 26 25 25
56 57 57 57 57 56 55 53 52 50 50 49 50 51 53 56 56 54 52 51 51 50 50 50 49 49 49 48 48 47 46 45 45 45 46 46 47 47 47 46 46 46 46 45 45 44 44 43 43 42 41 41 41 40 40 40 39 39 38 38 37 36 35 34 33 33 32 32 31 31 30 30 29 29 29 29 29 29 29 28 28 27 27 26 25 25
53 54 54 55 54 54 53 52 52 51 50 50 51 53 54 56 56 55 53 52 51 51 51 51 50 50 49 49 48 47 46 45 44 45 45 45 46 47 47 46 46 46 46 45 45 44 44 44 43 42 42 42 41 41 41 40 40 39 39 38 38 37 35 34 34 33 33 33 33 32 32 31 30 30 29 29 28 27 27 27 27 27 27 27 26 26
50 51 51 52 52 52 52 51 51 52 52 53 54 55 56 56 55 55 54 53 52 52 52 52 51 50 49 49 48 47 45 44 44 44 44 45 46 47 46 46 46 46 46 45 45 45 44 44 44 43 42 42 42 42 41 41 40 40 39 39 38 37 36 35 34 34 34 35 35 34 34 33 32 31 29 28 27 26 26 27 28 28 28 28 27 27
46 47 47 48 50 50 50 51 51 51 52 53 54 55 55 55 54 54 54 53 52 52 53 53 51 50 49 49 48 47 45 45 44 43 43 44 46 46 46 45 46 46 46 45 45 45 45 45 44 43 43 43 43 42 42 42 41 40 40 39 38 37 37 36 35 35 36 36 36 36 36 35 33 31 29 27 26 26 27 28 29 30 30 29 28 27
43 42 43 44 46 47 48 49 50 51 51 52 52 53 53 53 53 53 53 53 53 53 54 53 52 50 49 48 47 46 46 45 44 42 42 44 45 46 45 45 45 46 45 45 45 45 45 45 45 44 44 44 43 43 43 42 42 41 40 39 39 38 37 36 36 36 36 36 37 37 37 36 34 31 28 26 26 27 29 30 31 31 31 30 29 28
42 41 40 41 42 43 45 46 48 49 49 49 49 49 50 51 52 53 54 53 53 53 53 53 52 51 49 47 46 46 47 46 43 41 41 42 44 44 44 44 45 45 44 44 44 44 45 45 45 45 44 44 44 44 44 43 42 41 40 40 39 38 38 37 37 37 37 37 37 37 37 36 34 31 28 27 28 29 31 32 32 32 31 30 28 27
43 41 39 39 38 38 40 42 44 45 46 46 46 47 47 49 51 52 53 54 54 53 52 52 52 51 49 47 46 47 47 45 42 40 39 41 43 43 43 43 43 43 43 43 43 43 44 44 45 45 45 44 44 44 44 43 42 41 40 40 39 39 38 38 37 37 38 38 38 38 38 37 34 31 29 28 29 31 32 33 33 33 32 30 28 27
43 42 40 39 37 36 36 37 39 41 42 43 44 44 45 47 49 50 52 53 54 53 52 52 52 51 50 48 47 47 47 45 42 39 38 40 41 42 41 42 42 41 41 41 42 43 43 44 44 44 44 44 44 44 44 43 42 41 41 40 39 39 38 38 38 38 38 39 39 39 38 36 34 31 30 30 31 32 33 34 34 33 31 29 27 26
44 43 42 41 40 39 38 38 39 40 41 41 42 43 44 45 46 48 51 52 53 53 52 52 52 51 50 48 47 46 46 44 42 39 38 39 40 40 40 39 40 40 39 40 41 42 43 43 43 44 44 44 44 44 44 43 42 41 40 40 39 39 39 39 39 39 39 39 39 38 37 35 33 31 31 31 32 33 34 34 33 32 31 28 27 26
45 44 43 42 42 42 43 43 43 42 42 42 42 43 44 45 45 46 47 50 51 52 51 51 51 50 49 48 46 46 45 44 41 38 38 38 39 39 38 38 38 38 38 39 40 41 42 43 43 44 44 45 45 45 44 43 42 41 40 40 39 39 39 39 39 39 39 38 38 37 35 34 32 31 31 32 33 33 33 33 33 31 29 27 26 26
46 45 44 43 43 43 44 44 44 44 43 43 42 43 44 45 46 46 47 48 49 50 50 50 50 49 48 47 45 44 44 43 40 38 38 38 38 37 37 37 37 37 38 39 40 41 42 43 43 44 44 45 46 45 45 44 42 41 40 40 40 40 40 40 39 39 38 37 36 35 34 33 32 31 31 32 32 33 33 32 31 29 28 26 26 26
46 45 44 43 42 42 42 43 43 43 42 42 42 42 43 44 45 46 47 46 46 46 47 48 48 48 47 46 44 43 43 42 40 39 38 38 37 37 37 37 38 38 39 40 41 42 43 43 44 44 45 46 46 46 45 43 42 41 41 41 40 40 40 40 39 39 37 36 35 35 34 33 32 32 32 32 32 32 31 30 29 28 27 26 25 26
45 44 43 43 42 41 41 41 41 41 41 41 41 41 41 42 43 44 44 43 42 43 44 45 46 46 45 44 43 43 43 42 41 40 39 38 37 37 38 38 38 39 40 41 41 42 43 44 44 45 45 46 46 45 45 43 42 41 41 41 41 41 41 40 39 38 37 36 35 35 35 34 33 33 32 32 32 31 30 29 28 27 26 25 25 26
47 45 44 42 42 41 41 41 40 40 39 39 39 39 40 40 41 41 41 40 39 40 41 43 44 44 43 43 43 43 43 42 41 40 39 38 37 38 39 39 39 39 39 40 41 42 43 44 44 44 45 45 46 45 44 43 42 42 41 41 41 41 41 40 39 38 36 36 36 36 35 34 34 33 33 32 31 30 29 28 27 27 26 25 25 26
48 47 45 43 42 41 40 40 39 38 37 37 37 38 39 39 39 40 39 39 39 39 40 41 42 42 42 43 43 43 43 42 42 41 40 38 38 38 39 40 40 39 37 38 40 42 43 43 44 44 44 45 45 45 44 43 42 42 42 42 42 42 41 40 39 37 36 36 36 36 36 35 34 33 32 31 30 29 28 27 27 26 26 26 25 25
47 47 45 43 42 40 39 38 37 36 36 36 37 38 39 38 38 38 38 38 38 38 38 39 40 41 43 44 45 44 44 43 42 42 40 39 38 39 40 41 41 39 36 36 37 40 41 42 43 43 44 44 45 44 43 43 42 42 42 43 42 42 41 40 39 37 37 36 36 36 35 34 33 32 31 30 29 28 28 28 27 26 26 26 25 25
45 44 44 42 41 39 38 36 35 34 34 35 37 39 39 38 37 36 37 38 38 38 38 38 40 41 44 45 46 45 44 43 43 42 41 39 38 39 40 42 42 40 37 35 35 37 39 41 42 43 44 44 44 44 43 42 42 42 42 42 42 41 41 40 39 38 37 37 36 35 34 32 31 30 30 29 29 29 29 28 27 27 27 26 26 26
42 42 41 40 39 38 37 35 35 34 34 35 37 38 38 36 36 36 38 39 39 38 37 38 40 42 44 46 46 45 44 43 43 42 41 40 39 39 41 42 43 41 38 35 34 35 37 39 41 43 44 44 44 44 43 42 42 42 42 42 41 42 42 41 40 39 38 37 36 34 33 31 30 29 29 29 29 29 29 28 28 27 27 26 26 27
39 39 39 38 37 36 36 35 34 34 35 36 38 38 37 35 36 38 40 41 39 36 35 37 40 42 44 46 46 45 44 43 43 42 42 41 40 40 40 42 43 42 40 36 34 33 35 37 40 43 44 44 44 43 42 42 41 42 42 41 41 41 41 40 39 39 38 37 35 34 32 31 30 29 29 30 30 30 29 29 28 28 27 27 27 28
36 37 37 36 36 35 35 35 35 35 35 37 38 38 36 35 37 40 43 41 37 33 33 35 38 41 43 45 46 45 44 44 43 43 43 42 42 41 41 42 43 43 42 38 35 33 33 36 39 42 44 44 43 42 42 42 42 42 42 41 41 40 39 39 38 38 37 36 35 34 33 32 31 30 30 31 30 30 30 29 28 28 28 27 28 30
34 35 36 36 35 35 35 35 34 35 35 37 38 38 36 36 38 42 43 40 35 31 31 33 36 39 42 44 45 45 45 44 43 43 43 44 43 42 42 42 43 43 43 40 37 34 33 35 38 41 42 43 42 42 41 41 42 42 42 41 41 40 39 39 38 38 37 36 35 35 34 33 32 32 32 31 31 31 30 29 29 29 28 28 29 31
33 34 35 35 35 35 35 34 34 34 35 36 37 37 37 37 40 42 42 38 33 30 30 32 34 37 40 42 43 44 45 44 43 43 44 44 45 44 42 42 43 44 44 42 39 35 34 35 37 39 40 40 40 40 40 41 41 42 42 42 41 41 40 39 38 38 37 37 36 36 35 35 34 33 33 33 32 31 31 30 30 30 29 29 31 32
33 33 34 35 35 35 35 34 34 34 34 35 36 37 37 38 40 41 39 35 32 30 30 32 34 35 38 40 42 43 44 44 43 43 44 45 45 44 43 42 43 44 44 43 40 37 35 34 35 37 37 37 37 38 39 40 40 41 41 41 41 41 40 39 39 38 38 37 37 37 36 36 36 35 34 34 33 32 31 31 30 30 30 31 32 32
33 33 34 34 34 34 34 34 34 33 33 33 34 35 36 38 39 39 37 34 32 32 33 33 33 34 36 39 41 43 43 44 44 44 45 46 46 45 44 43 43 43 44 43 41 38 36 34 34 35 35 36 36 37 38 39 40 40 41 41 41 41 40 40 40 39 39 38 38 38 37 37 36 36 35 34 33 32 31 31 31 31 31 32 33 32
32 32 33 33 33 33 33 33 33 32 31 31 32 33 35 36 37 37 35 33 34 35 35 34 33 33 35 38 40 42 43 44 44 45 45 46 46 45 44 43 43 43 43 43 41 39 37 35 34 33 34 35 37 38 38 39 40 40 41 41 41 41 41 41 41 40 40 39 39 38 38 38 37 37 36 35 33 32 32 31 31 31 32 33 33 32
30 30 30 31 31 32 32 32 31 30 29 29 30 31 32 34 34 34 34 34 36 37 36 33 32 32 34 37 40 41 42 43 44 45 45 45 45 45 44 43 42 42 42 42 41 40 39 37 36 35 34 34 36 38 39 40 40 41 41 41 41 41 42 42 41 41 40 39 39 39 39 39 38 37 36 35 33 33 32 32 32 33 33 33 33 32
Wind_Direction
281 280 279 278 277 276 276 275 275 274 273 272 271 271 271 271 270 269 268 266 263 261 258 255 254 253 254 254 255 257 257 258 259 259 259 259 260 261 261 262 262 262 262 262 263 264 265 266 266 267 267 266 265 263 262 261 259 257 253 251 251 251 252 251 250 251 252 253 253 252 251 250 249 250 253 260 270 278 280 273 265 259 257 258 260 262
280 279 278 277 276 275 274 274 273 272 271 270 269 269 268 268 268 267 267 265 263 261 260 259 258 257 256 255 255 256 257 258 258 257 256 256 256 256 257 259 261 262 263 263 263 263 264 265 266 267 266 265 264 262 260 258 257 255 252 251 250 250 250 249 250 250 252 253 253 253 251 250 250 252 255 259 264 269 271 267 262 259 258 260 262 264
280 279 278 277 275 274 272 271 271 270 270 269 268 267 266 266 266 265 265 264 263 262 260 260 259 258 257 256 255 255 256 256 256 256 255 254 253 254 254 257 260 263 263 263 263 263 263 264 265 266 265 264 262 260 258 256 254 251 249 248 248 248 248 248 249 250 251 252 253 252 251 250 251 254 257 259 262 264 265 263 259 257 258 260 263 265
279 278 278 277 275 273 271 269 268 268 267 267 267 266 265 264 264 264 264 263 262 262 261 260 259 258 257 256 255 255 255 256 256 257 256 256 255 254 255 256 259 261 262 262 262 262 262 263 264 264 263 261 259 256 254 252 251 249 247 246 246 246 247 248 249 249 250 250 250 250 249 250 252 253 254 256 259 261 262 260 257 255 257 260 263 264
279 278 278 276 275 273 271 269 267 266 265 265 265 264 264 263 262 262 262 262 261 261 260 259 259 258 257 256 255 255 256 257 257 258 258 259 258 258 257 258 259 259 259 259 259 260 261 262 262 262 261 258 255 252 250 248 247 246 245 245 245 245 246 247 249 249 250 249 248 247 246 250 251 251 251 253 256 258 259 258 256 256 257 260 262 264
279 278 278 277 275 274 272 269 266 265 264 264 264 263 262 262 261 260 260 260 260 259 258 258 257 257 256 255 255 255 256 257 258 259 259 260 261 261 260 260 259 258 257 257 257 258 259 259 260 259 258 255 252 249 247 245 245 244 245 245 245 245 246 247 248 249 249 249 247 245 244 246 248 249 250 251 253 254 256 256 257 258 259 260 261 263
278 278 278 277 276 274 272 270 267 265 263 262 262 262 261 261 260 259 258 258 257 257 256 255 254 254 254 254 255 255 257 258 259 260 260 261 261 261 261 260 259 258 256 255 255 256 256 257 256 256 254 252 250 247 245 244 244 244 245 246 246 246 246 247 248 249 249 248 246 244 243 245 247 249 250 250 251 252 254 255 256 257 259 260 261 263
278 278 277 277 276 275 273 271 269 266 264 262 261 260 260 260 259 258 257 256 256 255 254 253 253 252 253 254 255 257 258 259 260 260 260 260 261 260 259 258 257 256 255 254 254 254 254 254 253 252 251 250 248 246 245 244 244 245 246 247 247 247 247 248 249 249 249 248 246 244 243 244 247 248 249 249 249 251 252 253 254 255 256 259 262 264
278 277 277 276 276 275 274 272 270 268 265 263 261 259 259 259 258 258 257 256 255 254 253 253 252 252 253 254 256 257 259 260 260 260 260 259 259 258 257 256 255 255 254 253 253 252 252 251 250 249 248 247 247 246 245 245 246 246 247 248 249 249 249 249 249 249 248 247 246 244 244 244 245 246 246 248 250 251 252 252 251 251 254 258 262 265
277 277 277 276 276 275 274 273 272 270 267 264 262 260 259 258 258 257 257 256 256 255 254 253 253 253 254 255 256 257 259 259 260 259 258 257 256 255 254 254 253 253 253 252 252 251 250 249 248 246 245 245 245 245 245 246 246 247 248 249 250 250 250 250 250 249 247 246 244 244 243 244 245 246 248 251 253 254 253 251 249 250 254 259 264 266
276 276 276 276 275 275 274 274 273 271 269 267 264 262 260 258 258 257 257 256 256 256 255 255 254 254 254 254 255 256 257 258 258 258 256 255 253 252 252 252 253 253 253 252 250 250 249 248 246 245 244 243 243 244 245 246 247 248 248 249 250 251 251 251 250 249 246 244 242 242 242 244 246 250 253 256 258 258 255 252 250 251 256 262 265 267
276 275 275 275 275 274 274 273 273 272 270 268 266 264 262 261 259 258 257 256 256 256 255 255 255 254 254 254 254 255 255 256 256 255 254 253 251 250 250 251 252 252 252 251 249 248 247 246 245 244 243 242 242 243 244 246 247 248 248 249 250 251 251 251 251 249 246 243 241 240 240 243 247 251 254 257 259 259 255 252 251 254 259 263 265 265
275 275 275 274 274 273 273 273 272 271 271 269 268 267 265 263 261 259 258 257 256 255 254 254 254 253 253 253 253 253 253 253 253 253 252 251 249 248 248 249 251 251 251 250 249 247 246 245 244 243 243 242 242 243 244 246 247 248 249 249 250 251 251 252 251 250 247 244 241 239 240 242 246 249 252 254 256 255 253 251 253 256 260 262 263 263
274 274 274 273 273 273 272 272 272 271 270 270 269 269 267 265 263 260 258 257 256 254 253 252 252 251 251 251 251 251 251 251 251 251 250 249 248 248 248 248 249 250 250 250 248 246 244 243 243 243 242 242 242 243 244 246 247 248 249 249 250 251 251 252 252 251 248 244 241 240 240 243 245 247 248 250 252 251 251 251 254 257 259 260 260 261
273 273 273 272 272 272 271 271 271 271 270 270 270 269 268 266 264 262 260 258 256 255 253 252 251 250 249 249 249 249 249 249 249 249 248 248 247 247 247 247 248 249 249 248 247 245 243 242 242 242 242 242 243 244 245 247 248 249 249 249 250 250 251 252 252 251 249 245 242 240 241 242 244 245 246 248 248 249 249 251 255 257 258 258 259 262
273 272 272 271 271 270 270 270 270 270 270 269 269 268 267 266 265 264 262 260 258 256 254 252 251 250 248 247 247 247 247 247 248 248 247 247 246 245 245 246 247 247 247 247 246 245 243 242 241 241 242 242 243 244 245 247 248 249 249 249 249 249 250 251 251 250 249 246 242 240 240 242 243 244 245 246 246 246 247 251 254 256 256 258 261 266
272 272 271 270 270 269 269 269 269 269 269 269 268 267 267 266 265 264 263 261 259 257 255 253 251 250 249 248 246 245 245 246 246 246 246 246 245 244 244 244 245 246 246 246 245 244 242 241 241 241 241 242 243 244 245 247 248 248 248 248 248 248 249 249 250 249 248 245 242 240 240 241 243 244 245 245 244 244 246 250 253 255 257 260 265 269
271 271 270 270 270 269 268 268 267 267 267 267 267 267 266 266 265 264 263 261 259 257 256 254 252 251 249 248 247 245 244 244 244 245 245 245 244 244 243 244 244 244 244 244 244 243 241 241 240 240 241 242 243 244 245 246 247 247 247 247 247 247 247 248 248 248 247 245 242 240 240 241 242 244 245 245 243 243 245 249 253 255 259 263 267 271
270 270 270 270 270 269 269 268 267 266 266 266 266 266 265 265 264 263 262 261 259 258 256 255 253 252 251 249 248 246 244 243 243 243 243 244 243 243 243 243 243 244 243 243 242 242 241 240 239 240 240 241 243 244 244 245 246 246 246 246 246 246 246 246 247 247 246 244 242 240 240 241 243 245 246 245 243 243 245 249 253 256 261 265 268 270
269 269 269 269 269 269 269 268 268 267 266 265 265 264 264 263 262 261 260 260 259 258 257 255 254 253 252 250 249 247 245 243 242 242 242 242 242 242 242 243 243 243 243 242 241 241 240 239 238 239 240 241 242 243 244 244 245 245 245 245 245 245 245 245 245 245 244 243 241 240 240 241 243 245 246 245 243 243 246 250 254 258 262 266 268 269
268 267 267 268 268 268 268 268 268 268 267 266 265 263 262 262 261 260 259 259 258 257 256 255 254 254 252 250 248 246 245 243 241 241 241 241 241 241 242 242 242 242 242 242 241 240 239 238 238 238 239 240 241 242 243 243 244 244 244 244 244 244 243 244 244 243 243 241 240 240 240 241 243 244 245 244 243 243 246 250 255 259 262 265 266 267
267 267 266 266 266 266 266 267 267 267 266 265 264 262 261 261 260 259 259 258 257 256 256 255 254 253 251 249 247 246 244 243 242 241 240 240 240 240 241 241 242 242 242 241 240 239 239 238 237 237 238 239 240 241 242 242 243 243 243 243 243 243 242 242 242 241 241 240 239 239 240 241 243 244 244 243 242 243 246 251 255 258 261 263 264 265
267 266 266 266 265 265 265 265 266 266 265 264 262 261 260 260 259 258 258 257 256 255 254 254 253 251 249 248 247 246 245 243 242 241 241 240 240 240 240 241 241 241 241 240 240 239 238 237 236 236 237 238 239 240 241 241 242 242 242 242 242 241 241 241 240 239 239 238 238 239 240 242 243 244 243 243 242 244 247 251 254 257 259 261 262 263
266 266 266 265 265 265 265 265 265 265 266 266 265 264 262 260 258 257 256 256 255 254 253 252 251 250 248 247 246 245 245 244 242 242 241 241 240 240 240 240 241 241 241 240 239 238 237 237 236 235 236 237 238 239 240 240 240 241 241 241 241 240 240 239 238 237 237 237 237 239 240 242 243 244 244 244 244 245 248 251 253 256 257 258 260 262
266 266 266 265 265 264 264 263 263 264 266 268 269 268 265 262 259 257 255 254 253 252 251 250 249 248 247 247 246 245 244 243 242 242 241 241 241 240 239 239 240 241 241 240 239 238 237 236 235 235 235 236 237 238 239 239 239 239 239 240 240 240 239 238 237 236 236 236 237 239 241 242 244 245 245 245 246 246 248 251 252 254 255 257 260 263
266 265 265 264 263 263 262 261 259 259 260 262 263 263 263 262 261 259 256 253 251 250 250 249 248 247 247 246 245 244 244 243 242 242 241 241 241 240 239 239 240 240 240 239 238 237 236 235 234 234 234 235 236 237 237 238 238 238 238 239 239 239 238 237 236 235 235 236 237 239 241 243 244 245 246 246 246 247 248 250 252 253 255 258 261 264
266 265 264 263 262 261 260 258 256 254 253 253 253 255 257 259 260 260 257 253 251 250 249 248 247 246 246 245 245 244 243 242 241 241 241 241 241 240 239 239 239 240 240 239 238 237 235 234 233 233 233 234 235 236 236 236 236 236 237 237 238 238 237 236 234 234 234 235 237 239 241 243 245 246 246 246 246 247 248 250 252 254 256 259 263 265
267 265 263 262 261 259 257 256 254 252 250 249 249 251 254 256 258 258 256 253 251 249 249 248 247 246 245 244 244 244 242 241 240 241 240 241 241 240 239 238 238 239 239 239 238 236 235 233 232 232 232 233 234 235 235 235 235 234 235 236 236 237 236 235 234 233 233 235 237 240 242 244 246 247 246 245 245 247 249 251 253 255 257 261 264 266
271 268 264 262 260 258 256 254 252 251 249 248 249 251 253 255 257 257 256 253 251 250 249 248 247 245 245 244 244 244 242 240 239 240 240 241 241 240 239 238 238 239 239 238 237 236 234 233 231 231 231 232 233 234 234 234 233 233 233 234 235 235 235 234 233 233 233 235 237 240 243 246 247 247 245 244 245 247 249 252 254 256 258 262 264 264
275 272 268 264 261 257 255 253 251 250 249 248 249 250 252 254 255 256 255 254 252 250 249 248 247 245 244 243 244 244 242 240 239 238 239 241 241 240 239 238 238 238 238 238 237 235 234 232 231 230 230 231 232 233 233 233 232 232 232 232 233 234 234 233 232 232 233 235 237 240 244 246 248 246 243 242 243 246 249 251 254 256 259 262 263 262
276 274 272 269 265 260 256 253 251 250 249 248 248 248 249 250 252 253 254 254 252 250 249 249 247 246 243 242 242 243 243 241 239 238 239 241 242 241 239 239 239 238 238 237 237 236 234 232 231 230 230 230 231 232 233 233 232 231 231 231 232 233 233 233 232 232 232 234 237 240 243 246 246 244 241 240 242 245 248 251 254 256 259 262 261 258
276 274 272 270 267 264 261 257 254 252 250 248 247 246 246 247 249 250 252 253 252 250 249 248 248 246 243 240 240 242 244 243 240 238 239 241 242 241 240 239 239 239 238 237 236 236 234 233 231 230 230 230 231 232 233 232 232 231 230 231 231 231 232 232 232 231 232 234 236 239 243 245 244 241 238 238 240 244 247 251 254 257 259 260 258 253
275 273 270 267 264 263 262 261 259 256 254 251 248 245 244 245 246 248 250 252 251 250 248 248 247 246 243 240 239 241 243 243 241 239 238 240 241 242 240 239 239 239 238 237 236 235 234 232 231 231 231 231 232 232 233 232 231 230 230 230 230 231 231 231 231 231 232 233 236 239 242 243 242 239 236 237 240 243 247 250 254 257 259 257 252 247
273 271 269 265 263 261 260 260 260 260 258 255 250 245 241 241 242 245 248 251 251 250 248 247 247 246 243 240 239 239 241 242 240 238 237 238 240 240 240 239 239 238 238 237 236 234 233 231 230 230 231 231 232 232 232 232 231 230 229 230 230 230 230 231 231 231 232 234 236 239 241 242 240 237 235 237 239 243 247 250 254 256 256 252 246 241
272 270 269 266 264 262 261 261 261 260 259 257 253 247 242 239 238 241 245 248 250 249 248 247 246 245 243 240 238 238 240 241 240 238 237 237 238 238 238 238 238 238 237 235 234 233 232 230 229 229 229 230 231 231 231 230 229 229 228 229 229 230 230 230 230 231 232 234 237 239 240 240 239 237 236 238 240 244 247 250 253 253 250 244 239 236
271 270 268 267 266 265 264 263 262 261 259 256 253 250 246 241 239 239 241 245 247 248 248 246 245 243 242 241 239 239 239 240 240 238 237 236 236 236 236 237 236 236 235 234 233 231 230 229 228 228 229 229 230 230 229 228 228 227 227 228 228 229 229 230 230 230 232 233 235 237 239 239 238 238 238 240 242 245 247 250 250 247 242 236 233 233
271 270 268 268 267 266 266 266 265 262 259 255 252 250 248 245 242 241 241 243 245 247 248 246 244 242 240 240 239 238 239 239 238 237 236 234 233 233 233 234 235 235 234 232 231 229 228 228 227 227 228 229 229 229 228 227 226 225 225 226 227 228 229 229 229 230 231 231 233 235 236 237 238 239 240 241 243 245 247 246 244 239 233 230 231 233
272 270 269 268 268 267 267 267 266 263 259 255 252 249 248 246 244 242 241 241 243 245 247 246 243 241 238 237 237 237 238 238 237 236 235 233 231 230 230 233 235 235 233 230 228 227 226 226 226 226 227 228 228 228 227 225 224 224 224 225 227 227 228 229 229 229 229 230 231 232 234 236 237 238 240 242 243 244 243 241 236 231 227 228 232 234
272 271 270 269 269 269 268 268 267 265 260 255 251 248 246 245 242 240 237 237 238 241 244 244 242 239 236 235 235 236 236 237 236 236 234 232 230 228 229 233 236 236 233 229 226 225 225 225 225 225 226 227 228 228 226 225 223 223 223 224 225 227 228 228 229 228 228 228 229 231 233 234 236 237 239 240 241 240 237 233 228 225 226 230 233 234
271 271 270 270 269 269 269 269 268 265 261 255 250 246 245 243 240 237 233 232 234 236 239 241 240 237 234 233 233 234 235 236 236 236 234 233 230 228 228 232 236 238 234 229 224 223 223 223 224 224 225 226 227 227 225 224 222 222 222 222 224 225 227 228 228 227 227 227 228 230 232 234 235 236 237 238 237 234 230 225 223 224 227 232 234 231
270 270 270 269 269 269 269 269 268 265 259 253 248 244 242 240 237 234 230 229 231 233 235 236 236 235 232 231 231 232 234 235 235 235 235 233 231 229 228 231 235 238 237 231 225 221 221 222 223 224 225 226 226 226 225 223 222 222 222 222 223 224 226 227 227 226 226 226 228 230 231 233 234 234 234 233 230 227 223 221 222 226 230 233 232 226
269 269 269 269 269 268 268 267 266 263 257 251 246 243 240 237 233 229 227 228 230 231 231 231 231 232 231 230 230 230 232 233 235 235 234 233 232 231 229 231 234 238 238 234 227 222 220 221 222 224 225 226 225 224 223 221 221 221 222 222 223 223 224 224 225 224 224 225 227 229 230 231 232 231 230 227 224 220 218 219 222 227 232 233 228 221
269 269 269 269 268 267 266 265 264 260 255 248 244 242 239 234 229 225 225 228 231 232 230 228 228 230 230 229 228 228 229 231 233 234 234 233 232 231 230 230 233 236 238 236 230 224 220 220 222 224 226 227 226 224 221 220 219 220 221 221 222 221 221 222 222 223 223 224 226 228 229 229 229 228 225 222 219 217 217 219 224 229 233 231 224 215
270 270 269 269 268 266 264 263 260 257 253 248 244 241 238 231 225 222 224 229 233 234 230 227 227 228 229 229 227 227 227 229 231 233 234 233 233 232 230 230 231 234 237 238 233 227 222 220 221 224 227 228 226 223 221 219 219 219 220 220 221 221 221 221 221 221 221 222 224 225 226 227 226 224 222 219 217 217 218 221 226 231 233 229 220 212
270 270 269 268 267 265 262 260 258 256 252 247 244 241 236 228 222 222 226 231 235 234 229 225 226 227 228 228 226 225 226 226 228 230 232 233 232 231 230 229 230 232 235 237 236 231 225 222 221 223 225 227 225 223 220 219 218 218 218 219 219 220 220 220 220 219 219 220 221 223 224 224 224 222 220 218 218 218 221 224 228 231 231 225 216 209
269 268 267 266 264 263 261 259 257 255 252 247 243 240 235 227 222 223 227 233 235 232 226 224 225 227 228 227 226 224 225 226 226 227 229 230 231 231 229 228 228 230 233 235 236 233 228 223 222 222 223 224 223 222 220 219 218 217 217 217 217 217 217 217 217 217 217 218 219 220 222 222 222 221 219 218 219 221 223 226 229 231 227 220 212 207
268 266 265 264 262 261 259 258 257 255 252 248 243 238 233 227 223 225 229 233 233 228 223 222 224 227 229 228 226 225 226 226 226 226 227 229 230 230 228 227 227 227 229 232 234 232 229 224 221 220 221 221 221 221 220 219 218 217 217 216 216 215 215 214 214 215 215 215 216 218 220 221 221 220 218 218 220 223 225 227 229 228 223 214 207 205
268 265 264 262 261 260 258 257 256 255 252 248 243 237 232 227 225 227 231 232 229 223 221 222 225 228 230 229 228 226 226 227 227 227 228 229 230 229 228 227 226 226 227 229 231 230 227 224 220 219 218 219 220 220 220 220 219 218 217 216 215 214 214 213 213 213 213 214 214 216 218 219 219 219 219 220 222 225 227 228 228 224 217 208 203 202
267 265 262 261 260 258 257 257 256 255 252 247 241 235 231 228 227 229 232 230 224 220 220 222 226 229 232 232 230 228 227 227 227 228 229 230 230 229 228 227 226 225 226 227 228 228 227 224 221 218 216 217 219 220 220 219 218 217 216 215 215 214 213 212 212 212 212 212 213 215 216 217 218 219 220 221 223 225 227 226 224 218 210 202 199 199
266 263 261 259 258 258 257 256 255 253 250 244 238 234 231 229 229 229 229 225 221 220 221 224 227 230 232 233 231 229 228 227 227 228 228 229 229 229 228 227 226 225 225 226 227 227 225 225 223 220 216 216 217 218 219 217 216 215 215 214 213 213 212 211 211 212 212 212 212 214 215 216 217 218 219 221 222 223 223 222 217 210 203 198 197 198
264 260 258 257 257 257 256 255 254 250 245 239 235 232 231 230 229 227 225 222 221 222 225 228 230 231 232 233 232 230 228 227 227 227 228 228 228 228 227 226 225 225 225 225 225 225 224 224 222 221 219 217 217 218 218 216 214 213 213 212 212 212 211 211 211 212 212 212 212 213 214 216 217 218 219 220 220 219 217 214 208 202 197 196 196 197
Height
3026 3027 3028 3029 3029 3030 3030 3031 3031 3031 3030 3031 3031 3031 3031 3031 3031 3031 3031 3031 3032 3032 3032 3032 3032 3032 3032 3033 3034 3034 3035 3035 3035 3036 3035 3036 3036 3036 3036 3036 3037 3037 3037 3038 3038 3039 3040 3040 3040 3040 3040 3041 3041 3041 3042 3042 3043 3044 3044 3045 3046 3046 3047 3047 3047 3048 3048 3049 3049 3049 3050 3051 3051 3052 3052 3053 3053 3052 3052 3052 3053 3053 3054 3055 3055 3055
3021 3022 3023 3025 3026 3026 3026 3027 3027 3027 3027 3027 3027 3028 3028 3028 3028 3028 3028 3029 3029 3029 3030 3030 3030 3030 3030 3030 3031 3031 3032 3032 3032 3033 3033 3033 3033 3033 3034 3034 3035 3035 3035 3035 3036 3036 3037 3037 3037 3037 3038 3038 3038 3039 3039 3040 3041 3041 3042 3042 3043 3044 3044 3045 3045 3046 3046 3046 3047 3047 3048 3049 3049 3050 3051 3051 3051 3051 3051 3051 3051 3052 3052 3053 3053 3053
3017 3017 3018 3020 3021 3022 3023 3023 3024 3024 3023 3023 3024 3024 3024 3025 3025 3025 3026 3026 3026 3026 3027 3027 3027 3027 3027 3028 3028 3028 3029 3029 3030 3030 3030 3030 3030 3031 3031 3032 3032 3032 3032 3033 3033 3034 3034 3034 3035 3035 3035 3036 3036 3036 3037 3037 3038 3039 3039 3040 3040 3041 3042 3042 3043 3043 3044 3044 3045 3045 3046 3047 3048 3048 3049 3049 3049 3049 3049 3050 3050 3050 3051 3051 3051 3051
3013 3013 3014 3015 3016 3017 3019 3020 3020 3020 3020 3020 3020 3020 3021 3021 3021 3022 3022 3022 3023 3023 3023 3024 3024 3024 3025 3025 3025 3026 3026 3026 3027 3027 3027 3027 3028 3028 3028 3029 3030 3030 3030 3030 3031 3031 3031 3032 3032 3032 3033 3033 3033 3034 3035 3035 3036 3036 3037 3037 3038 3039 3039 3040 3041 3041 3041 3042 3042 3043 3044 3045 3046 3046 3046 3047 3047 3047 3048 3048 3048 3048 3049 3049 3049 3049
3010 3010 3010 3011 3011 3013 3014 3016 3016 3016 3016 3016 3016 3016 3017 3017 3018 3018 3019 3019 3020 3020 3020 3021 3021 3021 3021 3022 3022 3022 3023 3023 3024 3024 3025 3025 3025 3025 3026 3026 3027 3027 3027 3028 3028 3028 3029 3029 3029 3030 3030 3031 3031 3032 3032 3033 3034 3034 3035 3035 3036 3036 3037 3038 3038 3039 3039 3040 3040 3041 3041 3042 3043 3044 3044 3045 3045 3046 3046 3046 3046 3046 3047 3047 3047 3048
3006 3006 3006 3006 3007 3008 3010 3011 3011 3012 3012 3011 3012 3012 3013 3013 3014 3015 3015 3016 3016 3017 3017 3017 3018 3018 3018 3019 3019 3019 3020 3020 3021 3021 3021 3022 3022 3023 3023 3024 3024 3025 3025 3025 3025 3026 3026 3026 3027 3027 3028 3028 3029 3029 3030 3031 3031 3032 3032 3033 3033 3034 3035 3036 3036 3036 3037 3037 3038 3038 3039 3040 3041 3041 3042 3042 3043 3044 3044 3045 3045 3045 3045 3045 3046 3046
3002 3002 3002 3002 3003 3004 3005 3006 3007 3008 3008 3008 3008 3008 3008 3009 3010 3011 3011 3012 3012 3013 3014 3014 3015 3015 3015 3016 3016 3016 3016 3017 3017 3018 3018 3019 3019 3020 3020 3021 3021 3022 3022 3022 3023 3023 3023 3024 3024 3025 3025 3026 3026 3027 3028 3028 3029 3030 3030 3031 3031 3032 3033 3033 3034 3034 3035 3035 3036 3036 3036 3037 3038 3039 3040 3040 3041 3042 3042 3043 3043 3043 3043 3044 3044 3045
2998 2998 2998 2999 2999 3000 3001 3001 3002 3003 3004 3004 3004 3004 3004 3005 3005 3006 3007 3008 3009 3009 3010 3011 3011 3012 3012 3012 3013 3013 3013 3013 3014 3014 3015 3016 3016 3016 3017 3018 3019 3019 3020 3020 3020 3020 3021 3021 3022 3022 3023 3023 3024 3025 3026 3026 3027 3027 3028 3028 3029 3030 3030 3031 3031 3032 3032 3033 3033 3034 3034 3035 3036 3036 3037 3038 3039 3040 3040 3041 3041 3041 3041 3042 3042 3043
2994 2994 2994 2995 2995 2995 2996 2996 2998 2999 3000 3000 3000 3000 3000 3000 3001 3001 3002 3003 3004 3005 3006 3006 3007 3008 3009 3009 3009 3010 3010 3010 3011 3011 3011 3012 3013 3013 3014 3015 3016 3016 3017 3017 3017 3018 3018 3019 3019 3020 3021 3021 3022 3022 3023 3024 3025 3025 3026 3026 3026 3027 3028 3028 3029 3029 3030 3030 3031 3031 3032 3033 3034 3034 3035 3036 3036 3037 3038 3038 3039 3039 3040 3040 3041 3041
2991 2990 2990 2990 2991 2991 2991 2991 2992 2994 2995 2995 2995 2996 2996 2996 2996 2997 2998 2998 2999 3001 3002 3002 3003 3004 3005 3005 3006 3006 3006 3006 3007 3007 3008 3009 3010 3010 3011 3011 3012 3013 3014 3014 3015 3015 3016 3016 3017 3017 3018 3019 3019 3020 3021 3021 3022 3023 3023 3024 3024 3025 3025 3026 3026 3027 3027 3028 3028 3029 3030 3030 3031 3031 3032 3033 3034 3035 3035 3036 3036 3037 3038 3038 3038 3039
2986 2986 2986 2986 2986 2986 2987 2987 2987 2989 2990 2991 2991 2991 2991 2992 2992 2993 2993 2994 2995 2996 2997 2998 2999 3000 3001 3001 3002 3002 3002 3003 3003 3004 3005 3005 3006 3007 3007 3008 3009 3010 3011 3011 3012 3012 3013 3013 3014 3015 3016 3016 3017 3018 3019 3019 3020 3021 3021 3021 3022 3022 3023 3023 3024 3025 3025 3026 3026 3027 3027 3028 3028 3029 3030 3030 3031 3032 3033 3034 3034 3035 3035 3036 3036 3036
2982 2982 2982 2982 2982 2982 2982 2982 2983 2984 2985 2985 2986 2986 2987 2988 2989 2989 2989 2990 2991 2992 2993 2993 2994 2995 2996 2997 2997 2998 2998 2999 2999 3000 3001 3001 3002 3003 3004 3005 3005 3006 3007 3008 3009 3009 3010 3011 3011 3012 3013 3014 3015 3015 3016 3017 3017 3018 3018 3019 3019 3020 3020 3021 3021 3022 3023 3023 3024 3025 3025 3026 3026 3027 3028 3028 3029 3030 3031 3031 3032 3033 3033 3034 3034 3035
2978 2978 2978 2978 2977 2977 2978 2978 2978 2979 2980 2980 2981 2981 2982 2984 2985 2985 2985 2985 2986 2987 2988 2989 2989 2990 2991 2992 2993 2994 2994 2994 2995 2996 2996 2997 2998 3000 3001 3001 3002 3003 3004 3005 3006 3006 3007 3008 3008 3009 3010 3011 3012 3013 3014 3014 3015 3016 3016 3016 3017 3017 3018 3018 3019 3020 3020 3021 3021 3022 3023 3024 3024 3025 3026 3027 3027 3028 3029 3030 3030 3031 3031 3032 3032 3032
2973 2973 2973 2973 2973 2973 2973 2974 2974 2974 2975 2975 2976 2977 2978 2979 2980 2980 2980 2981 2981 2982 2983 2984 2984 2985 2986 2987 2988 2989 2989 2990 2990 2991 2992 2993 2994 2996 2997 2997 2998 2999 3000 3001 3002 3003 3004 3005 3006 3006 3007 3008 3009 3010 3011 3012 3012 3013 3013 3014 3014 3015 3015 3016 3016 3017 3018 3018 3019 3020 3021 3021 3022 3023 3024 3025 3026 3026 3027 3028 3028 3029 3029 3030 3030 3031
2968 2968 2967 2967 2967 2968 2969 2969 2969 2969 2970 2971 2972 2972 2973 2973 2974 2975 2976 2976 2976 2977 2978 2978 2979 2980 2981 2982 2983 2984 2985 2985 2986 2986 2987 2989 2990 2992 2993 2994 2994 2995 2996 2997 2998 3000 3001 3002 3002 3003 3005 3006 3007 3008 3009 3009 3010 3010 3011 3011 3011 3012 3012 3013 3014 3014 3015 3016 3017 3018 3018 3019 3020 3021 3022 3022 3023 3024 3025 3026 3026 3027 3027 3027 3028 3028
2962 2962 2961 2962 2962 2963 2963 2964 2964 2964 2965 2966 2967 2967 2968 2968 2969 2970 2971 2971 2972 2972 2973 2973 2974 2975 2976 2977 2979 2980 2981 2981 2981 2982 2983 2985 2986 2987 2989 2990 2990 2991 2992 2994 2995 2996 2997 2998 2999 3000 3001 3003 3004 3005 3006 3006 3007 3007 3008 3008 3009 3009 3010 3011 3011 3011 3012 3013 3014 3015 3016 3017 3018 3019 3020 3021 3021 3022 3023 3024 3025 3025 3025 3025 3026 3026
2956 2956 2956 2956 2956 2957 2958 2959 2959 2959 2960 2961 2962 2962 2963 2963 2964 2965 2966 2966 2967 2967 2968 2968 2969 2969 2970 2972 2974 2976 2976 2977 2977 2978 2979 2980 2981 2983 2984 2985 2986 2987 2988 2990 2991 2992 2994 2995 2996 2997 2998 3000 3001 3002 3003 3003 3004 3004 3005 3006 3006 3007 3007 3008 3008 3009 3010 3011 3011 3012 3013 3014 3015 3016 3017 3018 3019 3020 3021 3022 3022 3023 3023 3023 3024 3024
2949 2949 2950 2950 2951 2951 2953 2954 2954 2954 2955 2956 2956 2957 2958 2959 2959 2960 2960 2961 2961 2962 2962 2963 2963 2964 2965 2967 2969 2971 2972 2973 2973 2973 2974 2975 2976 2978 2980 2981 2981 2982 2984 2986 2987 2989 2990 2991 2992 2994 2995 2996 2998 2999 2999 3000 3001 3001 3001 3002 3003 3004 3005 3005 3006 3006 3007 3008 3009 3010 3011 3012 3013 3014 3015 3016 3017 3018 3019 3020 3020 3020 3021 3021 3021 3022
2943 2943 2944 2944 2945 2946 2947 2947 2948 2949 2950 2951 2952 2952 2953 2953 2954 2955 2955 2955 2956 2957 2957 2958 2958 2959 2961 2963 2964 2966 2968 2968 2968 2968 2970 2971 2972 2973 2975 2976 2977 2978 2980 2981 2983 2985 2986 2987 2989 2990 2991 2993 2994 2995 2996 2996 2997 2998 2998 2999 3000 3001 3001 3002 3003 3003 3004 3005 3006 3007 3008 3009 3010 3011 3012 3013 3015 3016 3016 3017 3018 3018 3018 3019 3020 3020
2937 2937 2938 2939 2939 2940 2940 2941 2942 2943 2944 2946 2946 2947 2947 2947 2949 2949 2949 2950 2951 2951 2952 2952 2953 2954 2956 2958 2959 2961 2962 2963 2963 2964 2965 2966 2967 2968 2971 2971 2972 2974 2976 2977 2979 2981 2982 2984 2985 2987 2988 2989 2990 2991 2992 2993 2994 2995 2995 2996 2997 2998 2999 2999 3000 3001 3001 3003 3004 3005 3006 3007 3008 3009 3010 3011 3012 3013 3014 3015 3015 3016 3016 3017 3017 3018
2931 2931 2932 2934 2934 2934 2934 2935 2936 2938 2939 2940 2941 2941 2941 2942 2943 2944 2944 2945 2946 2946 2947 2947 2948 2949 2952 2953 2954 2955 2956 2957 2958 2958 2960 2961 2962 2963 2966 2967 2968 2969 2971 2973 2975 2977 2978 2980 2981 2983 2985 2986 2987 2988 2989 2989 2990 2991 2992 2993 2994 2995 2996 2996 2997 2998 2999 3000 3001 3002 3003 3004 3005 3006 3007 3008 3009 3010 3011 3012 3013 3013 3014 3015 3016 3016
2926 2926 2926 2928 2929 2929 2928 2929 2931 2932 2933 2934 2934 2934 2935 2936 2937 2938 2939 2941 2941 2941 2942 2942 2943 2945 2946 2947 2948 2949 2950 2952 2952 2953 2955 2956 2957 2959 2961 2963 2964 2965 2967 2969 2971 2973 2975 2976 2978 2979 2981 2982 2983 2984 2985 2986 2987 2988 2989 2990 2991 2992 2993 2993 2994 2995 2996 2997 2998 3000 3001 3001 3003 3004 3005 3006 3007 3008 3009 3010 3010 3011 3012 3013 3013 3014
2920 2920 2921 2922 2923 2923 2923 2924 2925 2926 2926 2927 2928 2928 2929 2931 2932 2933 2934 2936 2936 2936 2937 2938 2939 2940 2941 2941 2942 2943 2945 2947 2948 2949 2950 2951 2953 2955 2957 2959 2960 2961 2963 2965 2967 2969 2971 2972 2974 2976 2977 2979 2980 2981 2981 2982 2983 2984 2985 2986 2987 2988 2990 2991 2991 2993 2994 2995 2996 2997 2998 2999 3000 3001 3002 3003 3004 3005 3006 3007 3008 3009 3010 3011 3011 3012
2914 2914 2915 2916 2917 2918 2918 2919 2920 2920 2921 2921 2921 2922 2923 2925 2926 2927 2929 2930 2931 2931 2931 2932 2933 2934 2935 2936 2937 2939 2940 2942 2944 2945 2946 2947 2949 2951 2953 2955 2956 2957 2959 2961 2963 2966 2967 2969 2971 2972 2974 2975 2976 2977 2978 2979 2980 2981 2982 2983 2984 2985 2986 2988 2989 2990 2991 2992 2993 2994 2995 2996 2997 2998 3000 3001 3001 3003 3003 3004 3005 3006 3007 3008 3009 3010
2908 2908 2909 2910 2911 2912 2913 2914 2916 2917 2917 2917 2917 2917 2917 2918 2920 2921 2923 2924 2925 2925 2926 2927 2927 2928 2929 2931 2932 2934 2935 2937 2939 2940 2941 2943 2944 2946 2949 2951 2952 2953 2955 2957 2960 2962 2963 2965 2966 2968 2970 2971 2972 2973 2974 2975 2976 2977 2979 2980 2981 2982 2983 2985 2986 2987 2988 2989 2990 2991 2993 2994 2995 2996 2997 2998 2999 3000 3001 3002 3003 3004 3005 3006 3006 3007
2902 2902 2903 2904 2905 2906 2907 2908 2911 2913 2915 2916 2916 2915 2914 2913 2914 2916 2917 2918 2919 2920 2921 2921 2921 2922 2924 2926 2927 2929 2931 2933 2935 2936 2937 2939 2940 2942 2944 2946 2948 2949 2951 2953 2956 2958 2959 2961 2963 2965 2966 2967 2968 2970 2971 2972 2973 2974 2975 2976 2978 2979 2980 2982 2983 2984 2985 2986 2988 2989 2990 2991 2992 2993 2994 2996 2996 2997 2999 2999 3000 3001 3002 3003 3004 3005
2896 2896 2897 2897 2898 2899 2901 2901 2903 2906 2908 2911 2910 2909 2908 2908 2908 2909 2910 2911 2913 2914 2916 2915 2916 2917 2919 2921 2922 2924 2926 2929 2931 2932 2933 2935 2936 2937 2939 2942 2944 2945 2946 2949 2951 2953 2955 2957 2959 2961 2962 2963 2965 2966 2967 2968 2970 2971 2972 2973 2975 2976 2977 2979 2980 2981 2982 2984 2985 2986 2987 2988 2990 2991 2992 2993 2994 2995 2996 2997 2998 2999 3000 3001 3002 3002
2891 2891 2891 2892 2892 2893 2894 2895 2896 2897 2900 2902 2903 2904 2903 2903 2903 2903 2903 2905 2907 2910 2910 2910 2911 2912 2914 2915 2917 2919 2922 2925 2926 2928 2930 2931 2931 2933 2935 2937 2939 2941 2942 2945 2947 2949 2951 2952 2954 2956 2958 2960 2961 2962 2964 2965 2966 2967 2969 2970 2971 2973 2974 2976 2977 2978 2980 2981 2982 2983 2984 2986 2987 2988 2989 2990 2991 2992 2993 2994 2996 2996 2998 2999 2999 3000
2885 2885 2886 2886 2886 2887 2888 2888 2889 2890 2892 2894 2896 2898 2898 2898 2898 2897 2897 2900 2903 2904 2904 2904 2906 2908 2909 2910 2912 2915 2918 2920 2922 2924 2926 2927 2927 2928 2931 2933 2935 2936 2938 2940 2942 2944 2946 2948 2950 2952 2954 2956 2957 2959 2960 2961 2962 2964 2965 2967 2968 2970 2971 2973 2974 2975 2976 2978 2979 2981 2981 2983 2984 2986 2987 2988 2989 2990 2991 2992 2993 2994 2995 2996 2997 2997
2878 2879 2879 2880 2880 2881 2881 2882 2883 2884 2886 2887 2889 2891 2893 2894 2893 2892 2893 2895 2897 2898 2899 2899 2901 2903 2905 2907 2909 2911 2912 2914 2917 2921 2922 2923 2923 2924 2927 2929 2931 2932 2934 2936 2938 2940 2942 2944 2946 2948 2950 2952 2953 2955 2956 2957 2959 2960 2962 2963 2965 2967 2968 2970 2971 2972 2974 2975 2976 2978 2979 2980 2981 2983 2984 2985 2986 2987 2988 2989 2991 2991 2992 2993 2994 2995
2872 2873 2873 2873 2874 2875 2876 2876 2877 2878 2880 2881 2883 2885 2887 2888 2889 2888 2889 2890 2891 2892 2894 2895 2897 2899 2901 2903 2904 2905 2906 2909 2914 2918 2919 2919 2919 2920 2923 2926 2926 2927 2930 2932 2934 2936 2937 2940 2942 2944 2946 2948 2950 2951 2952 2954 2955 2957 2958 2960 2962 2963 2965 2967 2968 2970 2971 2972 2974 2975 2976 2977 2979 2980 2981 2983 2984 2985 2986 2987 2988 2989 2990 2991 2991 2992
2867 2868 2868 2868 2869 2870 2871 2871 2872 2873 2874 2876 2877 2879 2881 2883 2884 2885 2885 2885 2886 2887 2890 2891 2893 2894 2896 2898 2899 2900 2901 2906 2911 2914 2916 2916 2915 2916 2919 2921 2922 2924 2926 2929 2930 2931 2933 2936 2938 2940 2942 2944 2946 2947 2949 2951 2952 2954 2955 2957 2959 2960 2962 2964 2965 2967 2968 2970 2971 2972 2973 2975 2976 2978 2979 2980 2981 2982 2983 2985 2986 2986 2987 2988 2989 2990
2862 2863 2863 2864 2865 2866 2866 2867 2868 2869 2870 2871 2872 2874 2876 2879 2881 2881 2881 2881 2881 2883 2886 2887 2888 2890 2891 2893 2895 2897 2899 2903 2906 2910 2912 2912 2912 2913 2915 2917 2919 2921 2923 2925 2927 2928 2930 2932 2934 2936 2938 2940 2942 2944 2946 2947 2949 2951 2952 2954 2956 2957 2959 2961 2962 2964 2965 2967 2968 2969 2971 2972 2974 2975 2976 2977 2979 2980 2981 2982 2983 2984 2985 2986 2986 2987
2857 2858 2858 2859 2860 2861 2861 2863 2864 2865 2866 2867 2868 2869 2871 2874 2876 2877 2877 2876 2876 2878 2881 2883 2884 2886 2887 2889 2891 2893 2896 2899 2902 2905 2908 2908 2908 2909 2911 2914 2915 2917 2920 2921 2923 2925 2926 2928 2931 2933 2935 2937 2939 2941 2942 2944 2946 2947 2949 2951 2953 2954 2956 2958 2959 2961 2962 2964 2965 2966 2968 2969 2971 2972 2974 2975 2976 2977 2978 2980 2980 2981 2982 2983 2984 2985
2852 2853 2853 2854 2855 2856 2856 2857 2859 2860 2861 2862 2863 2864 2865 2868 2870 2872 2873 2872 2872 2873 2876 2878 2880 2882 2883 2886 2887 2890 2892 2895 2898 2901 2904 2904 2905 2906 2909 2910 2912 2914 2916 2918 2919 2921 2923 2925 2927 2929 2931 2933 2935 2937 2938 2940 2942 2944 2946 2948 2950 2951 2953 2955 2956 2958 2960 2961 2962 2964 2965 2966 2968 2970 2971 2972 2973 2975 2976 2977 2978 2979 2980 2981 2981 2983
2847 2847 2848 2849 2850 2851 2851 2852 2853 2854 2856 2857 2858 2860 2861 2862 2863 2865 2867 2868 2868 2869 2871 2874 2876 2878 2880 2882 2884 2886 2888 2891 2895 2898 2899 2901 2902 2904 2906 2907 2908 2910 2912 2914 2916 2917 2919 2921 2923 2926 2928 2929 2931 2932 2934 2936 2939 2941 2942 2944 2946 2948 2950 2951 2953 2955 2957 2958 2960 2961 2962 2964 2965 2967 2968 2970 2971 2972 2973 2974 2975 2976 2977 2978 2979 2980
2842 2842 2843 2844 2845 2846 2846 2847 2848 2849 2850 2851 2853 2855 2856 2858 2859 2860 2862 2863 2865 2866 2867 2869 2872 2874 2876 2878 2881 2883 2885 2888 2891 2893 2895 2896 2899 2901 2902 2903 2905 2907 2908 2910 2911 2913 2916 2917 2920 2922 2924 2925 2926 2928 2930 2933 2935 2937 2939 2941 2943 2945 2946 2948 2950 2952 2954 2955 2957 2958 2960 2961 2963 2964 2966 2967 2968 2969 2971 2972 2973 2974 2975 2976 2977 2978
2837 2837 2838 2839 2841 2841 2842 2842 2843 2844 2845 2846 2848 2850 2851 2853 2854 2856 2857 2860 2861 2863 2864 2865 2867 2870 2872 2875 2877 2879 2881 2884 2886 2889 2891 2893 2895 2897 2898 2900 2901 2903 2904 2906 2907 2910 2911 2913 2915 2917 2919 2921 2923 2925 2927 2929 2931 2933 2936 2938 2940 2941 2943 2945 2947 2949 2951 2952 2954 2956 2957 2958 2960 2961 2963 2964 2965 2966 2968 2969 2970 2971 2972 2974 2975 2976
2831 2833 2834 2835 2836 2837 2837 2838 2838 2839 2841 2841 2843 2845 2846 2848 2850 2851 2853 2856 2858 2860 2861 2862 2863 2866 2869 2871 2873 2876 2877 2880 2882 2885 2887 2889 2891 2893 2895 2896 2897 2898 2900 2902 2904 2906 2907 2909 2911 2913 2915 2917 2920 2921 2923 2926 2928 2930 2933 2935 2937 2939 2940 2942 2944 2946 2948 2950 2951 2952 2954 2956 2957 2959 2960 2961 2962 2964 2966 2967 2968 2969 2970 2971 2973 2974
2827 2828 2829 2831 2832 2833 2833 2834 2835 2836 2836 2837 2839 2841 2842 2844 2845 2847 2849 2851 2854 2856 2857 2858 2860 2862 2865 2867 2870 2871 2873 2876 2879 2881 2883 2886 2888 2890 2891 2892 2893 2895 2896 2898 2900 2901 2903 2906 2908 2910 2912 2914 2916 2918 2920 2922 2924 2927 2929 2931 2933 2935 2936 2939 2941 2943 2945 2947 2948 2950 2951 2953 2955 2956 2957 2959 2960 2962 2963 2965 2966 2967 2968 2970 2971 2972
2823 2824 2825 2826 2827 2828 2829 2830 2831 2832 2833 2834 2835 2836 2837 2839 2841 2842 2844 2847 2849 2852 2854 2855 2857 2859 2861 2863 2865 2867 2870 2872 2875 2877 2880 2882 2884 2886 2888 2889 2890 2891 2893 2895 2896 2897 2900 2902 2904 2906 2909 2911 2912 2914 2916 2919 2921 2923 2926 2927 2929 2931 2934 2936 2938 2940 2942 2944 2946 2947 2949 2951 2952 2954 2955 2956 2958 2959 2961 2962 2964 2965 2966 2967 2969 2970
2819 2820 2821 2822 2823 2824 2825 2826 2827 2828 2829 2829 2830 2831 2833 2835 2837 2839 2841 2843 2845 2847 2849 2851 2853 2855 2857 2858 2861 2863 2866 2869 2871 2874 2876 2878 2881 2883 2885 2886 2887 2888 2890 2891 2892 2894 2896 2899 2901 2903 2905 2906 2908 2911 2913 2915 2918 2920 2922 2925 2927 2930 2932 2933 2935 2937 2940 2941 2943 2944 2946 2948 2950 2951 2952 2954 2955 2957 2958 2960 2961 2962 2964 2965 2967 2968
2815 2816 2816 2818 2819 2820 2821 2822 2823 2824 2825 2825 2826 2826 2828 2831 2833 2835 2837 2839 2841 2843 2845 2847 2849 2851 2852 2854 2856 2859 2862 2865 2868 2870 2872 2875 2877 2879 2881 2882 2884 2885 2887 2888 2889 2891 2893 2895 2897 2899 2901 2903 2905 2906 2908 2911 2914 2917 2919 2921 2924 2926 2928 2930 2932 2934 2936 2938 2940 2941 2943 2945 2947 2948 2950 2951 2953 2954 2956 2957 2959 2961 2962 2963 2965 2966
2811 2812 2813 2814 2815 2816 2817 2818 2818 2819 2820 2821 2821 2822 2824 2827 2830 2831 2833 2835 2836 2839 2841 2843 2845 2847 2849 2851 2852 2855 2858 2861 2865 2867 2869 2871 2874 2876 2878 2879 2881 2882 2884 2885 2886 2887 2890 2892 2894 2896 2898 2900 2901 2903 2906 2908 2911 2913 2916 2918 2920 2922 2923 2926 2929 2931 2934 2936 2937 2939 2941 2943 2945 2946 2947 2949 2951 2952 2954 2956 2957 2958 2960 2961 2963 2964
2808 2808 2809 2810 2811 2812 2812 2813 2814 2815 2816 2817 2818 2819 2821 2823 2826 2827 2829 2830 2833 2835 2838 2840 2842 2844 2845 2846 2849 2851 2854 2857 2861 2863 2866 2868 2870 2872 2874 2876 2878 2879 2881 2882 2883 2885 2886 2888 2891 2893 2895 2896 2898 2900 2902 2905 2908 2910 2913 2915 2917 2919 2922 2925 2927 2929 2931 2933 2935 2937 2938 2940 2942 2944 2945 2947 2948 2950 2952 2953 2955 2956 2958 2959 2961 2963
2805 2805 2806 2806 2807 2808 2808 2809 2810 2811 2812 2813 2814 2816 2817 2820 2821 2823 2824 2826 2829 2831 2834 2836 2838 2840 2841 2842 2845 2848 2851 2854 2856 2859 2862 2864 2866 2869 2871 2872 2874 2876 2878 2879 2881 2882 2884 2885 2887 2890 2891 2893 2895 2897 2899 2902 2905 2907 2910 2912 2914 2917 2919 2922 2924 2926 2928 2931 2933 2935 2936 2938 2940 2941 2943 2944 2946 2948 2950 2951 2953 2954 2956 2957 2959 2961
2802 2802 2802 2803 2803 2804 2805 2806 2806 2808 2808 2809 2811 2812 2815 2816 2818 2819 2820 2822 2825 2828 2831 2833 2835 2837 2838 2840 2842 2844 2847 2849 2852 2855 2857 2860 2862 2865 2867 2869 2871 2873 2875 2877 2878 2880 2881 2882 2884 2886 2887 2890 2892 2894 2897 2899 2902 2904 2906 2909 2911 2913 2916 2918 2921 2923 2926 2928 2930 2932 2934 2935 2937 2939 2940 2942 2944 2946 2947 2949 2951 2952 2954 2955 2957 2959
2799 2799 2799 2799 2800 2801 2801 2802 2803 2804 2805 2806 2807 2809 2811 2813 2814 2816 2817 2820 2822 2825 2828 2830 2832 2834 2835 2837 2839 2841 2843 2846 2849 2851 2854 2856 2858 2861 2863 2865 2867 2870 2872 2873 2875 2876 2878 2879 2881 2882 2884 2886 2889 2891 2894 2897 2899 2901 2903 2906 2908 2910 2913 2915 2918 2920 2923 2925 2927 2929 2931 2932 2934 2936 2938 2940 2941 2943 2945 2947 2948 2950 2951 2953 2956 2957
2795 2795 2795 2796 2796 2797 2798 2798 2800 2801 2801 2803 2804 2806 2809 2810 2811 2812 2814 2817 2820 2822 2825 2827 2830 2831 2833 2834 2836 2838 2841 2843 2846 2848 2851 2853 2855 2857 2859 2861 2864 2866 2868 2870 2871 2873 2875 2876 2878 2879 2881 2884 2886 2889 2892 2894 2897 2899 2901 2903 2906 2908 2911 2913 2915 2917 2920 2922 2924 2926 2928 2930 2931 2933 2936 2937 2939 2941 2943 2945 2946 2948 2950 2952 2954 2956
2791 2792 2792 2793 2793 2794 2795 2796 2796 2797 2798 2800 2802 2804 2806 2807 2809 2810 2812 2814 2817 2820 2822 2824 2827 2829 2830 2831 2833 2835 2837 2840 2842 2845 2847 2849 2851 2853 2856 2858 2860 2862 2865 2866 2868 2870 2872 2874 2875 2877 2879 2881 2884 2886 2889 2891 2894 2896 2899 2901 2903 2905 2908 2910 2912 2914 2917 2919 2921 2924 2925 2927 2929 2931 2933 2935 2937 2939 2940 2942 2944 2946 2948 2950 2952 2954
2788 2788 2789 2790 2790 2791 2791 2793 2794 2795 2796 2798 2800 2802 2803 2805 2806 2808 2810 2812 2815 2817 2819 2821 2824 2826 2827 2829 2830 2832 2834 2837 2839 2841 2844 2846 2848 2850 2852 2854 2856 2859 2861 2863 2865 2867 2869 2871 2873 2875 2877 2879 2881 2883 2886 2888 2891 2893 2896 2898 2900 2902 2905 2907 2909 2912 2914 2917 2919 2921 2923 2924 2926 2928 2930 2932 2934 2936 2938 2940 2942 2944 2947 2949 2951 2953